[[{"header":{"parameterUnit":"m.s-1","parameterCategory":1,"la1":30.2991,"la2":30.254,"lo1":-89.0895,"lo2":-89.0444,"dy":0.0017,"dx":0.0017,"nx":28,"ny":28,"refTime":"2025-01-23T09:00:00:Z","depth":0,"parameterNumber":2,"parameterNumberName":"U-component_of_WINDS"},"data":[0,0,0,0,0,0,0,0,0,0,0,0,0,0,0,0,0,0,0,0,0,0,0,0,0,0,0,0,0,0,0,0,0,0,0,0,0,0,0,0,0,0,0,0,0,0,0,0,0,0,0,0,0,0,0,0,0,0,2.0541,2.0541,0,2.0518,2.0518,2.0517,2.0445,2.0444,2.0442,2.0441,2.0417,2.0418,2.0419,0,0,0,0,0,0,0,0,0,0,0,0,0,2.0524,2.0525,2.0541,2.0541,2.0541,2.0518,2.0518,2.0517,2.0446,2.0444,2.0442,2.044,2.0417,2.0418,2.0419,0,0,0,0,0,0,0,0,0,0,0,0,0,2.0519,2.0525,2.0541,2.0502,2.0498,2.0518,2.0518,2.0517,2.0446,2.0444,2.0441,2.0439,2.0416,2.0418,2.0419,2.0475,0,0,2.0423,2.0423,0,0,0,0,0,0,0,0,2.052,2.052,2.0508,2.0505,2.0501,2.0482,2.0503,2.0503,2.0447,2.0466,2.0441,2.0438,2.0441,2.044,2.0441,2.0474,2.0473,2.0423,2.0424,2.0424,2.0425,0,0,0,0,0,0,0,2.052,2.0521,2.0532,2.0508,2.0504,2.0486,2.0482,2.0503,2.0467,2.0464,2.0459,2.0457,2.0438,2.044,2.044,2.0472,2.0423,2.0424,2.0425,2.0425,2.0547,2.055,0,0,0,0,0,0,2.0526,2.0521,2.0533,2.0531,2.0505,2.0488,2.0484,2.0491,2.0467,2.0461,2.0459,2.0454,2.0439,2.0438,2.0438,2.05,2.0424,2.0426,2.0426,2.0545,2.0548,2.0551,0,0,0,0,0,0,2.0526,2.0528,2.0534,2.0525,2.0524,2.0491,2.0498,2.0491,2.0492,2.0463,2.0456,2.0467,2.0437,2.0437,2.0466,2.0498,2.0426,2.0427,2.0542,2.0546,2.0549,2.0625,0,0,0,0,0,0,2.0526,2.0528,2.0549,2.0526,2.0525,2.0562,2.05,2.0493,2.0495,2.0488,2.0468,2.0463,2.0435,2.0464,2.0467,2.0499,2.0428,2.0539,2.0544,2.0548,2.0619,2.0631,2.064,0,0,0,0,0,2.0525,2.0572,2.055,2.0552,2.055,2.0564,2.0563,2.053,2.0498,2.0518,2.0499,2.0463,2.0495,2.0468,2.047,2.0503,2.0537,2.0542,2.0548,2.0614,2.0628,2.064,0,0,0,0,0,0,2.06,2.0568,2.0544,2.0584,2.0577,2.0551,2.0576,2.0546,2.0548,2.0541,2.05,2.0496,2.053,2.052,2.049,2.0555,2.051,2.0516,2.056,2.0573,2.0583,2.0584,2.0429,0,0,0,0,0,2.0621,2.0634,2.0606,2.0644,2.0642,2.061,2.0615,2.0589,2.058,2.0577,2.056,2.0552,2.056,2.0566,2.0572,2.0618,2.0612,2.0642,2.0653,2.0661,2.0667,2.0688,2.07,2.0569,2.0569,2.0569,0,0,2.0665,2.0649,2.066,2.0659,2.065,2.0664,2.0608,2.0626,2.0635,2.058,2.0605,2.0593,2.0582,2.0619,2.0635,2.0611,2.0702,2.0669,2.0676,2.0676,2.0695,2.0707,2.0719,2.0573,2.0572,2.0571,0,0,2.0751,2.0741,2.0771,2.0763,2.0751,2.0729,2.0737,2.0716,2.0705,2.073,2.0688,2.0699,2.0714,2.0707,2.0706,2.079,2.0756,2.0793,2.0847,2.0869,2.0879,2.0888,2.0915,2.0926,2.0799,2.0799,2.0799,0,2.0807,2.0826,2.079,2.081,2.081,2.076,2.0789,2.0784,2.0775,2.0776,2.075,2.0767,2.0756,2.079,2.081,2.0812,2.0818,2.0794,2.0881,2.0889,2.0897,2.0922,2.0933,2.0803,2.0803,2.0802,2.0802,0,2.0894,2.0908,2.0934,2.0925,2.0928,2.0953,2.092,2.0928,2.0903,2.0884,2.091,2.0895,2.0896,2.0903,2.0879,2.0933,2.0919,2.0888,2.0841,2.0914,2.0937,2.0947,2.081,2.0808,2.0807,2.0806,0,0,2.1025,2.0996,2.1005,2.1,2.0983,2.0993,2.1015,2.1016,2.1022,2.1018,2.1034,2.1048,2.1019,2.1017,2.0992,2.1012,2.1075,2.0977,2.0976,2.0994,2.1132,2.1153,2.1165,2.1054,2.1056,2.1058,2.1131,0,2.1104,2.114,2.1108,2.1149,2.1161,2.1114,2.1133,2.1125,2.1108,2.1115,2.1097,2.1106,2.1068,2.1066,2.1084,2.1064,2.1102,2.1059,2.1068,2.1069,2.1069,2.1178,2.1201,2.1271,2.1141,2.1142,2.1143,0,2.1201,2.12,2.1242,2.1221,2.1225,2.1242,2.1239,2.1248,2.1237,2.1223,2.1221,2.1191,2.121,2.1167,2.1193,2.1164,2.1166,2.1158,2.1159,2.1157,2.1108,2.1175,2.1293,2.1302,2.1158,2.1157,2.1156,0,2.1289,2.1298,2.1324,2.1321,2.1298,2.1311,2.1302,2.1289,2.1291,2.1289,2.1289,2.129,2.129,2.1291,2.1261,2.1233,2.129,2.1245,2.1278,2.1278,2.129,2.1289,2.1406,2.1296,2.1296,2.1296,2.1296,0,2.1379,2.1406,2.1363,2.1379,2.1407,2.1371,2.1401,2.1387,2.1375,2.1387,2.1348,2.136,2.1321,2.1328,2.1306,2.1329,2.133,2.1318,2.1311,2.132,2.1321,2.1319,2.1312,2.1299,2.1298,2.1297,2.1297,0,2.1481,2.1454,2.1478,2.1454,2.1448,2.147,2.1449,2.1462,2.1443,2.1458,2.146,2.143,2.1437,2.1408,2.141,2.1394,2.1429,2.1415,2.1432,2.1427,2.146,2.1456,2.1578,2.1591,2.1475,2.1476,2.1477,0,2.1539,2.1559,2.1536,2.1541,2.1533,2.1542,2.1544,2.1509,2.1512,2.1501,2.1515,2.1519,2.1519,2.1533,2.1511,2.1512,2.1496,2.1539,2.1496,2.1503,2.1493,2.1491,2.1492,2.1547,2.1548,2.1549,2.155,0,2.1644,2.1629,2.1633,2.1631,2.1634,2.1632,2.1626,2.1633,2.1595,2.1601,2.1607,2.1608,2.1609,2.1613,2.1609,2.1599,2.1568,2.1564,2.1571,2.1579,2.1587,2.158,2.1453,2.1561,2.156,2.1559,2.1559,2.1558,2.1724,2.1738,2.1724,2.1729,2.1721,2.1717,2.1727,2.1709,2.1714,2.1712,2.1692,2.1702,2.1689,2.1681,2.1674,2.1681,2.1661,2.1672,2.1674,2.1677,2.1681,2.1589,2.1681,2.1681,2.168,2.168,2.168,0,2.1824,2.1813,2.1818,2.1811,2.1815,2.1786,2.1778,2.1783,2.1792,2.1783,2.1784,2.1791,2.1794,2.1772,2.1772,2.1782,2.1767,2.1783,2.178,2.1778,2.1701,2.1693,2.1794,2.1794,2.1794,2.1794,2.1794,2.1794,2.1877,2.1899,2.1882,2.19,2.1888,2.1897,2.1895,2.189,2.1882,2.1891,2.1893,2.1879,2.1865,2.1863,2.1865,2.1858,2.1859,2.1878,2.1867,2.1795,2.1784,2.1773,2.1765,2.188,2.188,2.1943,2.1943,2.1944]},{"header":{"parameterUnit":"m.s-1","parameterCategory":1,"la1":30.2991,"la2":30.254,"lo1":-89.0895,"lo2":-89.0444,"dy":0.0017,"dx":0.0017,"nx":28,"ny":28,"refTime":"2025-01-23T09:00:00:Z","depth":0,"parameterNumber":3,"parameterNumberName":"V-component_of_WINDS"},"data":[0,0,0,0,0,0,0,0,0,0,0,0,0,0,0,0,0,0,0,0,0,0,0,0,0,0,0,0,0,0,0,0,0,0,0,0,0,0,0,0,0,0,0,0,0,0,0,0,0,0,0,0,0,0,0,0,0,0,-3.7808,-3.7809,0,-3.7943,-3.7945,-3.7946,-3.7905,-3.7902,-3.7899,-3.7897,-3.8034,-3.804,-3.8046,0,0,0,0,0,0,0,0,0,0,0,0,0,-3.7512,-3.7517,-3.7808,-3.7809,-3.7811,-3.7943,-3.7945,-3.7947,-3.7906,-3.7902,-3.7899,-3.7895,-3.8032,-3.8039,-3.8047,0,0,0,0,0,0,0,0,0,0,0,0,0,-3.7643,-3.7519,-3.7807,-3.7806,-3.7808,-3.7943,-3.7945,-3.7947,-3.7906,-3.7902,-3.7898,-3.7894,-3.803,-3.8039,-3.8048,-3.8192,0,0,-3.8077,-3.8081,0,0,0,0,0,0,0,0,-3.7636,-3.7654,-3.7805,-3.7807,-3.7808,-3.7903,-3.7891,-3.8029,-3.7907,-3.7869,-3.7897,-3.7892,-3.7994,-3.8006,-3.8041,-3.8198,-3.8204,-3.8078,-3.8084,-3.8088,-3.809,0,0,0,0,0,0,0,-3.7626,-3.7648,-3.7861,-3.7807,-3.7809,-3.7799,-3.7813,-3.7917,-3.7953,-3.7872,-3.7869,-3.7886,-3.7994,-3.8032,-3.8044,-3.8206,-3.8078,-3.8086,-3.8092,-3.8095,-3.8488,-3.8492,0,0,0,0,0,0,-3.7616,-3.764,-3.7857,-3.7865,-3.771,-3.7807,-3.7823,-3.7877,-3.7952,-3.796,-3.7889,-3.7883,-3.8018,-3.8033,-3.8048,-3.8221,-3.8088,-3.8096,-3.8102,-3.8483,-3.8489,-3.8494,0,0,0,0,0,0,-3.761,-3.7636,-3.7851,-3.7752,-3.7779,-3.7817,-3.7878,-3.7882,-3.7919,-3.7965,-3.7972,-3.7921,-3.8015,-3.8035,-3.8156,-3.8225,-3.8101,-3.8109,-3.8477,-3.8485,-3.8491,-3.8568,0,0,0,0,0,0,-3.7602,-3.7634,-3.7689,-3.7754,-3.7784,-3.7958,-3.7882,-3.7887,-3.7936,-3.793,-3.7997,-3.8004,-3.8013,-3.8142,-3.8166,-3.8236,-3.8117,-3.8471,-3.8481,-3.8489,-3.8559,-3.8577,-3.8592,0,0,0,0,0,-3.7591,-3.7706,-3.7693,-3.7719,-3.7854,-3.7962,-3.7979,-3.7988,-3.7942,-3.7997,-3.8027,-3.8002,-3.8214,-3.8155,-3.8181,-3.8255,-3.8467,-3.8478,-3.8488,-3.8552,-3.8573,-3.8591,0,0,0,0,0,0,-3.7648,-3.7714,-3.77,-3.7839,-3.7895,-3.7955,-3.8025,-3.801,-3.808,-3.8071,-3.8078,-3.8094,-3.8218,-3.8249,-3.8182,-3.8398,-3.8334,-3.835,-3.8373,-3.8394,-3.841,-3.8399,-3.8125,0,0,0,0,0,-3.7677,-3.7759,-3.7812,-3.7929,-3.7958,-3.7987,-3.8034,-3.8036,-3.8094,-3.8118,-3.8156,-3.8214,-3.8293,-3.8345,-3.8421,-3.8564,-3.8577,-3.8627,-3.8643,-3.8656,-3.867,-3.8748,-3.877,-3.8529,-3.8529,-3.8528,0,0,-3.7736,-3.7783,-3.7834,-3.7941,-3.7985,-3.807,-3.8007,-3.81,-3.8162,-3.8132,-3.8249,-3.8279,-3.8343,-3.8476,-3.8536,-3.8505,-3.874,-3.867,-3.868,-3.8687,-3.8761,-3.8784,-3.8804,-3.8536,-3.8535,-3.8534,0,0,-3.7889,-3.7932,-3.8034,-3.808,-3.8147,-3.8165,-3.819,-3.8252,-3.8271,-3.8389,-3.8368,-3.8442,-3.8579,-3.8626,-3.8667,-3.8837,-3.8817,-3.8862,-3.8946,-3.9021,-3.904,-3.9057,-3.9117,-3.9138,-3.8875,-3.8876,-3.8876,0,-3.7954,-3.8082,-3.8088,-3.8183,-3.823,-3.8207,-3.831,-3.8353,-3.8442,-3.8475,-3.8439,-3.861,-3.8652,-3.8795,-3.8837,-3.8871,-3.8899,-3.8854,-3.9037,-3.9054,-3.907,-3.9127,-3.915,-3.8881,-3.888,-3.8879,-3.8879,0,-3.8159,-3.8247,-3.8322,-3.8408,-3.8464,-3.8562,-3.8583,-3.8639,-3.8636,-3.8658,-3.8778,-3.8827,-3.8912,-3.8946,-3.8944,-3.9089,-3.9068,-3.9035,-3.897,-3.9097,-3.9151,-3.9174,-3.8888,-3.8886,-3.8884,-3.8883,0,0,-3.8351,-3.844,-3.8467,-3.8505,-3.8578,-3.8646,-3.8743,-3.8827,-3.8874,-3.8936,-3.9017,-3.9133,-3.9103,-3.915,-3.9153,-3.9219,-3.935,-3.9177,-3.9179,-3.9207,-3.9512,-3.9536,-3.9562,-3.9337,-3.9341,-3.9344,-3.9506,0,-3.8509,-3.8679,-3.8688,-3.8843,-3.8925,-3.8903,-3.8988,-3.9041,-3.9064,-3.9136,-3.9161,-3.9244,-3.9198,-3.9226,-3.9291,-3.932,-3.9411,-3.9308,-3.9411,-3.9415,-3.9395,-3.959,-3.9616,-3.9767,-3.9528,-3.9531,-3.9534,0,-3.8716,-3.8784,-3.8947,-3.9008,-3.9042,-3.9118,-3.9195,-3.9265,-3.9324,-3.9336,-3.939,-3.9383,-3.9481,-3.9414,-3.9549,-3.9479,-3.9522,-3.9543,-3.9549,-3.9558,-3.9482,-3.9604,-3.9815,-3.9838,-3.9567,-3.9565,-3.9562,0,-3.8839,-3.8972,-3.9086,-3.912,-3.9194,-3.9247,-3.9281,-3.9336,-3.9386,-3.9453,-3.9485,-3.9563,-3.9605,-3.9665,-3.9679,-3.9629,-3.9815,-3.9748,-3.9827,-3.9827,-3.9867,-3.9864,-4.0087,-3.9895,-3.9895,-3.9895,-3.9894,0,-3.9014,-3.9115,-3.9142,-3.9213,-3.9325,-3.9334,-3.9444,-3.9473,-3.9523,-3.9598,-3.9585,-3.9656,-3.967,-3.9744,-3.9755,-3.9866,-3.9885,-3.9897,-3.9899,-3.9898,-3.9897,-3.9926,-3.9916,-3.9901,-3.9899,-3.9898,-3.9897,0,-3.917,-3.9193,-3.9317,-3.9376,-3.9393,-3.9473,-3.9524,-3.9591,-3.9613,-3.9708,-3.9731,-3.9765,-3.9851,-3.9871,-3.9973,-3.9981,-4.0112,-4.0103,-4.0092,-4.0091,-4.0168,-4.0161,-4.0418,-4.0452,-4.0238,-4.024,-4.0241,0,-3.9281,-3.9358,-3.9425,-3.9475,-3.9511,-3.9591,-3.9641,-3.9653,-3.9706,-3.978,-3.9838,-3.9923,-3.9991,-4.013,-4.0163,-4.0241,-4.0234,-4.0319,-4.0246,-4.0243,-4.0235,-4.023,-4.0238,-4.0333,-4.0335,-4.0337,-4.0339,0,-3.9474,-3.9481,-3.9555,-3.9633,-3.9693,-3.9755,-3.9814,-3.9855,-3.9875,-3.9935,-4.0023,-4.0076,-4.018,-4.0264,-4.0343,-4.0376,-4.0361,-4.0361,-4.0384,-4.0384,-4.0373,-4.0379,-4.0129,-4.0355,-4.0354,-4.0352,-4.0352,-4.0351,-3.961,-3.9677,-3.9736,-3.9818,-3.9863,-3.9918,-3.9984,-4.0014,-4.0088,-4.0174,-4.0176,-4.0272,-4.033,-4.0433,-4.0472,-4.0546,-4.052,-4.0552,-4.0561,-4.0568,-4.0575,-4.0362,-4.0561,-4.056,-4.056,-4.0559,-4.0559,0,-3.9803,-3.9839,-3.9914,-3.9997,-4.0062,-4.0042,-4.0106,-4.0161,-4.0245,-4.03,-4.0368,-4.0469,-4.055,-4.059,-4.067,-4.0722,-4.0717,-4.0743,-4.0739,-4.0747,-4.0594,-4.0567,-4.0746,-4.0746,-4.0746,-4.0746,-4.0746,-4.0746,-3.991,-4.0022,-4.0037,-4.0171,-4.0206,-4.03,-4.0339,-4.0389,-4.0433,-4.0546,-4.0614,-4.0639,-4.0688,-4.0772,-4.0845,-4.0855,-4.0885,-4.0914,-4.092,-4.0777,-4.0758,-4.074,-4.0714,-4.0921,-4.0921,-4.1067,-4.1068,-4.1069]}]]